Weather reports worldwide

Advertisment
Redesdale Camp, United Kingdom (3230): temperature & dewpoint: 08.10.2019 12:00:00 - 14.10.2019 12:00:00 (BST)Redesdale Camp, United Kingdom (3230): temperature -20cm & temperature -100cm: 08.10.2019 12:00:00 - 14.10.2019 12:00:00 (BST)Redesdale Camp, United Kingdom (3230): wind speed & gusts: 08.10.2019 12:00:00 - 14.10.2019 12:00:00 (BST)Redesdale Camp, United Kingdom (3230): wind direction: 08.10.2019 12:00:00 - 14.10.2019 12:00:00 (BST)Redesdale Camp, United Kingdom (3230): reduced air pressure: 08.10.2019 12:00:00 - 14.10.2019 12:00:00 (BST)Redesdale Camp, United Kingdom (3230): visibility: 08.10.2019 12:00:00 - 14.10.2019 12:00:00 (BST)Redesdale Camp, United Kingdom (3230): precipitation: 08.10.2019 12:00:00 - 14.10.2019 12:00:00 (BST)
Date & Time tt [°C] td [°C] tt -20cm [°C] tt -100cm [°C] ff [km/h] ff [kn] fx [km/h] fx [kn] dd ppp [hPa] vv [km] rr [mm]
14.10.2019 12:00:00 9,6 9,4 - - 4 2 - - SSW 1009,2 55 0,0
14.10.2019 11:00:00 7,3 7,3 - - 2 1 - - SSE 1009,7 0,2 0,0
14.10.2019 10:00:00 5,6 5,6 11,0 12,0 2 1 - - SW 1009,8 0,1 0,0
14.10.2019 09:00:00 5,0 5,0 - - 4 2 - - N 1009,6 - 0,0
14.10.2019 08:00:00 3,4 3,3 - - 2 1 - - ESE 1009,5 9 0,0
14.10.2019 07:00:00 3,0 2,8 - - 4 2 - - SE 1009,3 0,4 0,0
14.10.2019 06:00:00 3,7 3,6 - - 4 2 - - NW 1008,4 21 0,0
14.10.2019 05:00:00 2,9 2,6 - - 8 4 - - N 1008,4 21 0,0
14.10.2019 04:00:00 4,0 3,8 - - 4 2 - - NE 1008,3 10 0,0
14.10.2019 03:00:00 4,6 4,1 - - 4 2 - - ESE 1007,9 3,6 0,0
14.10.2019 02:00:00 5,6 5,2 - - 4 2 - - ESE 1007,5 50 0,2
14.10.2019 01:00:00 6,9 6,3 - - 5 3 - - W 1005,5 55 0,0
14.10.2019 00:00:00 7,9 7,6 - - 11 6 - - WSW 1005,4 28 0,0
13.10.2019 23:00:00 8,3 8,0 - - 2 1 - - SW 1004,4 17 0,4
13.10.2019 22:00:00 8,1 7,9 - - 0 0 - - N 1003,4 2,7 0,0
13.10.2019 21:00:00 8,6 8,4 - - 4 2 - - S 1002,7 2,2 0,2
13.10.2019 20:00:00 9,0 8,7 - - 0 0 - - N 1001,6 2,6 0,6
13.10.2019 19:00:00 9,0 8,6 - - 2 1 - - SSW 1000,9 3,6 0,2
13.10.2019 18:00:00 9,5 9,1 - - 0 0 - - N 1000,1 3,9 1,2
13.10.2019 17:00:00 9,9 9,5 - - 2 1 - - NNE 999,8 6 1,8
13.10.2019 16:00:00 9,8 9,4 - - 4 2 - - NNE 999,6 5 1,2
13.10.2019 15:00:00 9,9 9,6 - - 5 3 - - NE 999,7 7 0,8
13.10.2019 14:00:00 9,3 9,2 - - 2 1 - - SW 1000,1 9 1,2
13.10.2019 13:00:00 8,7 8,6 - - 2 1 - - S 1000,7 2,9 0,4
13.10.2019 12:00:00 8,3 8,3 - - 2 1 - - SW 1001,5 8 0,0
13.10.2019 11:00:00 7,1 7,1 - - 2 1 - - W 1002,1 3,3 0,0
13.10.2019 10:00:00 5,2 5,1 11,2 12,2 2 1 - - E 1002,9 11 0,0
13.10.2019 09:00:00 3,4 3,4 - - 2 1 - - ESE 1003,2 6 0,0
13.10.2019 08:00:00 1,9 1,7 - - 2 1 - - NW 1003,6 5 0,0
13.10.2019 07:00:00 1,8 1,6 - - 2 1 - - SSW 1003,8 9 0,0
13.10.2019 06:00:00 2,4 2,1 - - 2 1 - - N 1003,9 3,0 0,0
13.10.2019 05:00:00 3,0 2,8 - - 4 2 - - N 1004,2 5 0,0
13.10.2019 04:00:00 3,8 3,7 - - 4 2 - - N 1004,5 1,2 0,0
13.10.2019 03:00:00 4,3 4,0 - - 2 1 - - NW 1004,7 21 0,0
13.10.2019 02:00:00 5,9 5,8 - - 8 4 - - N 1005,1 16 0,0
13.10.2019 01:00:00 4,2 3,8 - - 2 1 - - N 1005,3 30 0,0
13.10.2019 00:00:00 5,6 5,3 - - 4 2 - - NW 1005,2 26 0,0
12.10.2019 23:00:00 4,6 4,1 - - 2 1 - - N 1005,3 22 0,0
12.10.2019 22:00:00 5,7 5,2 - - 2 1 - - ENE 1005,2 35 0,2
12.10.2019 21:00:00 5,7 5,2 - - 5 3 - - SE 1005,2 35 0,0
12.10.2019 20:00:00 6,5 5,3 - - 5 3 - - SSE 1004,6 30 0,0
12.10.2019 19:00:00 9,0 7,4 - - 13 7 - - SW 1004,1 40 0,0
12.10.2019 18:00:00 9,8 6,5 - - 15 8 - - SW 1003,8 23 0,0
12.10.2019 17:00:00 11,7 6,6 - - 11 6 - - SW 1003,3 75 0,0
12.10.2019 16:00:00 11,5 6,4 - - 15 8 - - WSW 1003,3 65 0,0
12.10.2019 15:00:00 13,4 8,1 - - 11 6 - - WSW 1002,8 55 0,0
12.10.2019 14:00:00 11,0 7,0 - - 8 4 - - WSW 1003,4 55 0,0
12.10.2019 13:00:00 10,2 5,8 - - 21 11 - - SW 1003,5 1,1 0,0
12.10.2019 12:00:00 10,1 6,4 - - 15 8 - - WSW 1003,4 5 0,0
12.10.2019 11:00:00 10,3 5,7 - - 18 10 - - WSW 1002,9 2,3 0,0
12.10.2019 10:00:00 9,6 6,6 11,5 12,2 13 7 - - WSW 1002,4 13 0,0
12.10.2019 09:00:00 8,3 6,2 - - 8 4 - - WSW 1002,0 45 0,0
12.10.2019 08:00:00 7,0 5,6 - - 5 3 - - W 1001,9 45 0,0
12.10.2019 07:00:00 8,2 6,7 - - 9 5 - - WSW 1001,1 45 0,0
12.10.2019 06:00:00 6,7 5,6 - - 4 2 - - W 1000,9 65 0,0
12.10.2019 05:00:00 7,2 6,0 - - 8 4 - - SSW 1000,4 70 0,0
12.10.2019 04:00:00 8,5 7,0 - - 5 3 - - W 999,7 18 0,0
12.10.2019 03:00:00 8,8 5,9 - - 9 5 - - W 999,0 60 0,0
12.10.2019 02:00:00 8,5 5,9 - - 16 9 - - WSW 998,4 45 0,0
12.10.2019 01:00:00 8,7 5,9 - - 16 9 - - WSW 998,0 50 0,0
12.10.2019 00:00:00 9,1 6,0 - - 15 8 46 25 WSW 997,5 55 0,0
11.10.2019 23:00:00 9,6 6,3 - - 26 14 48 26 SW 997,0 26 0,0
11.10.2019 22:00:00 9,3 5,7 - - 22 12 - - SW 996,7 55 0,0
11.10.2019 21:00:00 9,8 7,3 - - 26 14 - - SW 996,6 40 0,0
11.10.2019 20:00:00 9,4 7,3 - - 24 13 46 25 SW 996,2 30 0,0
11.10.2019 19:00:00 9,6 7,3 - - 24 13 46 25 SW 996,5 40 0,0
11.10.2019 18:00:00 10,3 7,2 - - 28 15 50 27 SW 995,8 35 0,0
11.10.2019 17:00:00 10,8 7,1 - - 28 15 54 29 SW 995,7 40 0,0
11.10.2019 16:00:00 12,1 6,5 - - 29 16 57 31 SW 995,2 40 0,0
11.10.2019 15:00:00 12,6 6,6 - - 34 18 61 33 SW 994,9 45 0,0
11.10.2019 14:00:00 12,7 6,9 - - 34 18 57 31 SW 994,7 35 0,0
11.10.2019 13:00:00 13,0 6,7 - - 29 16 54 29 SW 994,9 40 0,0
11.10.2019 12:00:00 12,4 6,4 - - 28 15 55 30 SW 995,1 35 0,0
11.10.2019 11:00:00 12,0 7,5 - - 24 13 48 26 SW 995,2 40 0,0
11.10.2019 10:00:00 11,0 7,5 11,7 12,2 21 11 - - SW 995,6 30 0,0
11.10.2019 09:00:00 10,3 7,3 - - 26 14 - - SW 995,3 29 0,0
11.10.2019 08:00:00 9,4 7,8 - - 21 11 - - SW 995,8 22 0,0
11.10.2019 07:00:00 8,8 6,8 - - 16 9 - - SW 996,1 26 0,0
11.10.2019 06:00:00 9,2 7,0 - - 18 10 - - SW 996,3 26 0,0
11.10.2019 05:00:00 9,7 7,0 - - 21 11 - - SW 996,5 27 0,0
11.10.2019 04:00:00 10,5 8,2 - - 22 12 - - SW 996,3 28 0,0
11.10.2019 03:00:00 11,4 9,1 - - 26 14 48 26 SW 996,2 28 0,0
11.10.2019 02:00:00 11,7 9,9 - - 28 15 50 27 SW 996,5 23 0,2
11.10.2019 01:00:00 11,4 10,0 - - 28 15 54 29 SW 997,1 21 0,2
11.10.2019 00:00:00 11,3 10,0 - - 34 18 57 31 SW 996,7 7 0,2
10.10.2019 23:00:00 11,7 9,5 - - 26 14 52 28 SW 996,4 25 0,0
10.10.2019 22:00:00 11,8 9,6 - - 22 12 54 29 SW 996,0 27 0,0
10.10.2019 21:00:00 11,6 9,3 - - 29 16 55 30 SW 997,0 25 0,0
10.10.2019 20:00:00 11,8 9,4 - - 31 17 63 34 SW 997,2 28 0,0
10.10.2019 19:00:00 11,8 9,5 - - 28 15 55 30 SW 997,9 30 0,0
10.10.2019 18:00:00 12,0 10,3 - - 24 13 - - SW 998,5 40 0,0
10.10.2019 17:00:00 9,7 9,0 - - 13 7 - - S 999,7 40 0,0
10.10.2019 16:00:00 9,4 8,6 - - 13 7 - - SSW 1000,8 3,5 0,2
10.10.2019 15:00:00 10,4 8,6 - - 15 8 - - SW 1001,7 12 0,2
10.10.2019 14:00:00 10,8 7,9 - - 21 11 - - SW 1002,3 35 0,0
10.10.2019 13:00:00 12,1 6,3 - - 22 12 - - WSW 1002,4 50 0,0
10.10.2019 12:00:00 10,4 6,8 - - 24 13 - - WSW 1002,7 40 0,0
10.10.2019 11:00:00 10,5 7,1 - - 15 8 - - SW 1002,4 35 0,0
10.10.2019 10:00:00 10,0 7,3 11,7 12,4 21 11 - - WSW 1001,8 35 0,0
10.10.2019 09:00:00 9,0 7,4 - - 15 8 46 25 WSW 1001,4 35 0,2
10.10.2019 08:00:00 8,3 7,4 - - 16 9 - - WSW 1000,9 6 0,2
10.10.2019 07:00:00 8,3 7,4 - - 16 9 - - WSW 1000,0 7 0,2
10.10.2019 06:00:00 8,4 7,1 - - 16 9 - - WSW 999,2 7 0,0
10.10.2019 05:00:00 8,3 7,0 - - 16 9 - - WSW 998,9 9 0,0
10.10.2019 04:00:00 8,7 6,7 - - 16 9 - - WSW 998,6 26 0,0
10.10.2019 03:00:00 8,4 6,2 - - 16 9 - - WSW 998,0 30 0,0
10.10.2019 02:00:00 8,6 6,4 - - 16 9 - - WSW 997,8 30 0,0
10.10.2019 01:00:00 8,3 6,4 - - 18 10 54 29 WSW 997,5 40 0,0
10.10.2019 00:00:00 8,2 6,0 - - 18 10 - - SW 997,4 45 0,0
09.10.2019 23:00:00 8,6 6,6 - - 16 9 - - SW 997,5 40 0,0
09.10.2019 22:00:00 8,0 6,2 - - 18 10 - - SW 997,2 40 0,0
09.10.2019 21:00:00 8,0 6,2 - - 16 9 - - SW 997,0 40 0,0
09.10.2019 20:00:00 7,5 5,9 - - 5 3 - - WSW 997,2 35 0,2
09.10.2019 19:00:00 8,1 6,0 - - 11 6 - - WSW 996,6 40 0,0
09.10.2019 18:00:00 8,9 6,1 - - 15 8 - - SW 996,5 55 0,0
09.10.2019 17:00:00 9,6 6,5 - - 16 9 - - SW 996,1 6 0,0
09.10.2019 16:00:00 10,0 7,2 - - 18 10 - - WSW 995,6 50 0,2
09.10.2019 15:00:00 10,6 6,0 - - 26 14 48 26 SW 995,4 10 0,0
09.10.2019 14:00:00 11,1 5,9 - - 22 12 - - WSW 995,2 45 0,0
09.10.2019 13:00:00 11,8 6,2 - - 24 13 52 28 WSW 995,1 50 0,0
09.10.2019 12:00:00 11,4 6,4 - - 24 13 48 26 WSW 994,9 50 0,0
09.10.2019 11:00:00 9,3 6,2 - - 21 11 - - SW 995,9 40 0,0
09.10.2019 10:00:00 9,0 6,3 11,7 12,5 18 10 - - WSW 995,8 35 0,0
09.10.2019 09:00:00 8,7 6,4 - - 18 10 - - SW 995,8 30 0,0
09.10.2019 08:00:00 8,6 6,4 - - 16 9 - - SW 995,8 29 0,0
09.10.2019 07:00:00 8,9 6,6 - - 22 12 - - SW 995,3 28 0,0
09.10.2019 06:00:00 8,8 6,7 - - 18 10 - - WSW 995,3 27 0,0
09.10.2019 05:00:00 9,1 6,6 - - 21 11 - - SW 995,3 30 0,0
09.10.2019 04:00:00 9,3 6,9 - - 21 11 - - SW 995,3 30 0,0
09.10.2019 03:00:00 9,2 6,8 - - 18 10 - - SW 995,5 30 0,0
09.10.2019 02:00:00 9,5 6,8 - - 13 7 - - SW 995,4 35 0,0
09.10.2019 01:00:00 9,5 6,8 - - 16 9 - - WSW 994,9 35 0,0
09.10.2019 00:00:00 9,9 7,0 - - 22 12 50 27 WSW 994,7 40 0,0
08.10.2019 23:00:00 9,9 7,4 - - 21 11 50 27 WSW 994,3 35 0,0
08.10.2019 22:00:00 10,0 7,0 - - 24 13 48 26 SW 994,2 40 0,0
08.10.2019 21:00:00 10,1 7,1 - - 24 13 46 25 SW 994,3 40 0,0
08.10.2019 20:00:00 9,5 7,5 - - 15 8 46 25 SW 994,7 60 0,0
08.10.2019 19:00:00 10,0 7,9 - - 28 15 48 26 SW 994,2 30 0,0
08.10.2019 18:00:00 11,0 7,3 - - 28 15 52 28 SW 994,2 30 0,0
08.10.2019 17:00:00 11,2 7,3 - - 22 12 52 28 SW 994,6 29 0,0
08.10.2019 16:00:00 11,7 7,3 - - 28 15 59 32 SW 994,4 30 0,0
08.10.2019 15:00:00 11,2 6,7 - - 31 17 61 33 SW 994,9 29 0,0
08.10.2019 14:00:00 12,0 7,1 - - 22 12 59 32 SW 995,4 29 0,0
08.10.2019 13:00:00 11,9 6,5 - - 29 16 59 32 SW 995,5 30 0,0
08.10.2019 12:00:00 11,9 6,5 - - 29 16 65 35 SW 995,5 30 0,0

tt = temperature
td = dewpoint
tt -20cm = temperature -20cm
tt -100cm = temperature -100cm
ff = wind speed
fx = gusts
dd = wind direction
ppp = reduced air pressure
vv = visibility
rr = precipitation

Next stations